[[{"header":{"parameterUnit":"m.s-1","parameterCategory":2,"la1":30.2992,"la2":30.254,"lo1":-89.0895,"lo2":-89.0443,"dy":0.0025,"dx":0.0025,"nx":19,"ny":19,"refTime":"2026-03-13T03:00:00:Z","depth":"0","parameterNumber":2,"parameterNumberName":"U-component_of_CURRENTS"},"data":[0,0,0,-0.19,-0.1901,-0.1929,-0.1929,-0.1947,-0.1947,0,0,0,0,0,0,0,0,0,0,0,-0.1883,-0.1883,-0.19,-0.1901,-0.1929,-0.1929,-0.1947,-0.1947,0,0,0,0,0,0,0,0,0,0,0,-0.1883,-0.1883,-0.1883,-0.1901,-0.1929,-0.1929,-0.1947,-0.1928,0,0,0,0,0,0,0,0,0,0,-0.1903,-0.1884,-0.1883,-0.1883,-0.1901,-0.1929,-0.1929,-0.1928,-0.193,-0.1931,0,-0.1935,0,-0.1947,-0.1948,-0.1948,0,0,0,-0.1895,-0.1883,-0.1901,-0.1883,-0.1901,-0.1929,-0.1915,-0.1929,-0.1931,-0.1933,-0.1935,-0.1936,-0.1947,-0.1948,-0.1948,-0.1973,-0.1973,0,0,-0.1893,-0.1878,-0.1899,-0.1902,-0.1909,-0.1914,-0.1916,-0.193,-0.1926,-0.1935,-0.1937,-0.1948,-0.1949,-0.1949,-0.1973,-0.1973,0,0,0,-0.1893,-0.1877,-0.1894,-0.1901,-0.1911,-0.1915,-0.1917,-0.1925,-0.1934,-0.1937,-0.1948,-0.1949,-0.1949,-0.1973,-0.1973,-0.1981,0,0,0,-0.1891,-0.1878,-0.1894,-0.1884,-0.191,-0.1919,-0.1911,-0.1932,-0.1935,-0.1948,-0.1949,-0.1949,-0.1973,-0.1973,-0.198,-0.1983,0,0,0,-0.1882,-0.1876,-0.1882,-0.1883,-0.19,-0.192,-0.1929,-0.1933,-0.1942,-0.1948,-0.1949,-0.1973,-0.1973,-0.198,-0.1982,-0.1969,0,0,0,-0.1863,-0.1871,-0.1881,-0.1897,-0.19,-0.1936,-0.1929,-0.1947,-0.1955,-0.1949,-0.1973,-0.1973,-0.198,-0.1982,-0.1969,-0.186,-0.1851,0,0,-0.1865,-0.187,-0.1884,-0.1895,-0.1926,-0.1931,-0.1957,-0.1961,-0.1958,-0.1965,-0.1966,-0.1981,-0.1982,-0.1969,-0.1877,-0.1868,0,0,0,-0.1881,-0.1885,-0.1899,-0.1918,-0.1947,-0.1963,-0.1974,-0.1973,-0.1976,-0.1965,-0.1984,-0.1985,-0.1977,-0.191,-0.1904,-0.1855,-0.1974,-0.1974,-0.1974,-0.1849,-0.1879,-0.1896,-0.1932,-0.1955,-0.1984,-0.1994,-0.1993,-0.1992,-0.1992,-0.1994,-0.1995,-0.1925,-0.1918,-0.187,-0.1998,-0.1998,-0.1998,-0.1998,-0.1842,-0.1844,-0.1888,-0.1913,-0.1947,-0.1969,-0.2003,-0.2004,-0.2006,-0.2004,-0.1995,-0.1926,-0.1911,-0.1862,-0.1999,-0.1999,-0.1999,-0.1999,-0.1999,-0.1803,-0.1806,-0.1833,-0.1869,-0.1905,-0.1952,-0.1974,-0.2002,-0.2005,-0.2009,-0.192,-0.1918,-0.1871,-0.1998,-0.1998,-0.1998,-0.1998,-0.1997,-0.1997,-0.1736,-0.1768,-0.1772,-0.1822,-0.1842,-0.1888,-0.1952,-0.1962,-0.1939,-0.1917,-0.1915,-0.1856,-0.1994,-0.1989,-0.1997,-0.1997,-0.1997,-0.1997,-0.1997,-0.1659,-0.1681,-0.1685,-0.1701,-0.1756,-0.1745,-0.1846,-0.1827,-0.1847,-0.1804,-0.1736,-0.186,-0.1842,-0.1846,-0.1838,-0.1806,-0.1806,-0.1806,-0.1806,-0.1589,-0.1608,-0.1587,-0.1596,-0.1626,-0.167,-0.1602,-0.1615,-0.1614,-0.1579,-0.1633,-0.1604,-0.1614,-0.1584,-0.1594,-0.158,-0.1484,-0.1484,-0.1484,-0.1519,-0.1535,-0.1484,-0.1516,-0.1548,-0.1551,-0.1424,-0.1375,-0.1415,-0.1472,-0.1591,-0.1604,-0.1567,-0.1587,-0.1544,-0.1562,-0.1543,0,0]},{"header":{"parameterUnit":"m.s-1","parameterCategory":2,"la1":30.2992,"la2":30.254,"lo1":-89.0895,"lo2":-89.0443,"dy":0.0025,"dx":0.0025,"nx":19,"ny":19,"refTime":"2026-03-13T03:00:00:Z","depth":"0","parameterNumber":3,"parameterNumberName":"V-component_of_CURRENTS"},"data":[0,0,0,-0.0267,-0.0266,-0.0211,-0.021,-0.0108,-0.0107,0,0,0,0,0,0,0,0,0,0,0,-0.0286,-0.0286,-0.0267,-0.0266,-0.0211,-0.021,-0.0108,-0.0107,0,0,0,0,0,0,0,0,0,0,0,-0.0286,-0.0286,-0.0286,-0.0266,-0.0211,-0.021,-0.0108,-0.0155,0,0,0,0,0,0,0,0,0,0,-0.0211,-0.0242,-0.0286,-0.0286,-0.0266,-0.0211,-0.021,-0.0157,-0.0152,-0.0127,0,-0.0127,0,-0.0119,-0.0101,-0.01,0,0,0,-0.0254,-0.0247,-0.023,-0.0286,-0.0265,-0.0211,-0.0232,-0.0155,-0.0148,-0.012,-0.0126,-0.0122,-0.0117,-0.01,-0.0099,-0.0042,-0.0042,0,0,-0.0257,-0.0274,-0.0234,-0.0227,-0.0261,-0.0234,-0.0231,-0.0151,-0.0149,-0.0126,-0.012,-0.0116,-0.0099,-0.0099,-0.0042,-0.0042,0,0,0,-0.0274,-0.0276,-0.0261,-0.0231,-0.0225,-0.0233,-0.0229,-0.0153,-0.0148,-0.0119,-0.0114,-0.0099,-0.0098,-0.0042,-0.0042,-0.0101,0,0,0,-0.0275,-0.0286,-0.0263,-0.0272,-0.0228,-0.0194,-0.0233,-0.0153,-0.0144,-0.0115,-0.0099,-0.0097,-0.0042,-0.0042,-0.0099,-0.0135,0,0,0,-0.0287,-0.0288,-0.0284,-0.0273,-0.0254,-0.0195,-0.0185,-0.0151,-0.0142,-0.01,-0.0096,-0.0042,-0.0042,-0.0098,-0.0131,-0.0099,0,0,0,-0.0301,-0.0316,-0.0285,-0.03,-0.0255,-0.0238,-0.0186,-0.0163,-0.0133,-0.0098,-0.0042,-0.0042,-0.0097,-0.0129,-0.0098,-0.0047,-0.0048,0,0,-0.0331,-0.032,-0.033,-0.0301,-0.0308,-0.0244,-0.0236,-0.0174,-0.0125,-0.0063,-0.0062,-0.01,-0.0131,-0.0099,-0.006,-0.0061,0,0,0,-0.0347,-0.0356,-0.0352,-0.0348,-0.0318,-0.0286,-0.0225,-0.0188,-0.0132,-0.011,-0.0088,-0.0106,-0.0083,-0.005,-0.005,0.0095,-0.0043,-0.0043,-0.0043,-0.0407,-0.0394,-0.0413,-0.0392,-0.0375,-0.0311,-0.0275,-0.021,-0.0163,-0.0147,-0.0145,-0.0152,-0.0118,-0.0117,0.0031,-0.0129,-0.0129,-0.0129,-0.0129,-0.047,-0.0484,-0.0461,-0.0475,-0.0429,-0.0409,-0.0319,-0.0275,-0.0207,-0.0183,-0.0156,-0.0104,-0.0121,0.0037,-0.0133,-0.0132,-0.0132,-0.0131,-0.0131,-0.0517,-0.0523,-0.0525,-0.0539,-0.0524,-0.0468,-0.0427,-0.0356,-0.0264,-0.0248,-0.0155,-0.0153,-0.0017,-0.0217,-0.0217,-0.0217,-0.0217,-0.0217,-0.0217,-0.0565,-0.0567,-0.06,-0.0604,-0.061,-0.0586,-0.0491,-0.0424,-0.0293,-0.0215,-0.0213,0.0003,-0.0177,-0.0178,-0.0218,-0.0218,-0.0218,-0.0218,-0.0218,-0.0623,-0.0621,-0.0678,-0.0696,-0.0707,-0.0683,-0.0589,-0.0409,-0.0316,-0.023,0.0033,-0.0167,-0.0133,-0.0131,-0.0129,-0.0153,-0.0153,-0.0153,-0.0153,-0.0658,-0.0663,-0.0737,-0.0777,-0.0794,-0.0729,-0.0607,-0.0403,-0.0083,0.0091,0.0141,0.0182,0.0173,0.0228,0.0222,0.0233,0.03,0.0301,0.0302,-0.0692,-0.0715,-0.0769,-0.0808,-0.0832,-0.0762,-0.0621,-0.036,0.011,0.0334,0.0333,0.0314,0.0386,0.036,0.0456,0.0436,0.0456,0,0]}],[{"header":{"parameterUnit":"m.s-1","parameterCategory":2,"la1":30.2992,"la2":30.254,"lo1":-89.0895,"lo2":-89.0443,"dy":0.0025,"dx":0.0025,"nx":19,"ny":19,"refTime":"2026-03-13T03:00:00:Z","depth":"2","parameterNumber":2,"parameterNumberName":"U-component_of_CURRENTS"},"data":[0,0,0,-0.1686,-0.1687,-0.1723,-0.1723,-0.1742,-0.1742,0,0,0,0,0,0,0,0,0,0,0,-0.1668,-0.1668,-0.1686,-0.1687,-0.1723,-0.1723,-0.1742,-0.1742,0,0,0,0,0,0,0,0,0,0,0,-0.1668,-0.1668,-0.1669,-0.1687,-0.1723,-0.1723,-0.1742,-0.172,0,0,0,0,0,0,0,0,0,0,-0.1688,-0.1671,-0.1668,-0.1669,-0.1687,-0.1723,-0.1723,-0.1719,-0.1721,-0.1719,0,-0.1726,0,-0.1738,-0.1743,-0.1743,0,0,0,-0.1682,-0.167,-0.1687,-0.1669,-0.1688,-0.1723,-0.1705,-0.1721,-0.1723,-0.1722,-0.1726,-0.1727,-0.1739,-0.1743,-0.1743,-0.1766,-0.1767,0,0,-0.168,-0.1667,-0.1686,-0.1689,-0.1698,-0.1704,-0.1706,-0.1722,-0.172,-0.1726,-0.1728,-0.1739,-0.1743,-0.1743,-0.1766,-0.1767,0,0,0,-0.1678,-0.1665,-0.1683,-0.1688,-0.1699,-0.1705,-0.1708,-0.1719,-0.1727,-0.1728,-0.1739,-0.1743,-0.1743,-0.1766,-0.1766,-0.1779,0,0,0,-0.1676,-0.1664,-0.1682,-0.1673,-0.1699,-0.1712,-0.1704,-0.1726,-0.1728,-0.1739,-0.1743,-0.1744,-0.1766,-0.1766,-0.1778,-0.178,0,0,0,-0.1666,-0.1663,-0.167,-0.1672,-0.1692,-0.1712,-0.1721,-0.1727,-0.1735,-0.1743,-0.1744,-0.1766,-0.1766,-0.1778,-0.1779,-0.1767,0,0,0,-0.1648,-0.1657,-0.1669,-0.1685,-0.1691,-0.1726,-0.1721,-0.1742,-0.1751,-0.1743,-0.1766,-0.1766,-0.1777,-0.1779,-0.1767,-0.1653,-0.1645,0,0,-0.1651,-0.1657,-0.1669,-0.1681,-0.1712,-0.1721,-0.1747,-0.1755,-0.1753,-0.1758,-0.1758,-0.1778,-0.1779,-0.1767,-0.1672,-0.1663,0,0,0,-0.1665,-0.167,-0.1683,-0.1703,-0.1731,-0.1751,-0.1764,-0.1766,-0.1773,-0.1761,-0.1781,-0.1782,-0.1773,-0.1704,-0.1698,-0.1768,-0.1768,-0.1768,-0.1768,-0.1637,-0.1664,-0.1682,-0.1716,-0.1739,-0.1771,-0.1784,-0.1787,-0.1788,-0.1791,-0.1794,-0.1797,-0.1724,-0.1718,-0.1799,-0.1799,-0.1799,-0.1799,-0.1799,-0.163,-0.1633,-0.1675,-0.17,-0.1735,-0.1759,-0.1794,-0.18,-0.1807,-0.1806,-0.1797,-0.1724,-0.1711,-0.18,-0.18,-0.18,-0.1799,-0.1799,-0.1799,-0.1595,-0.1598,-0.1626,-0.1662,-0.17,-0.1748,-0.1769,-0.1802,-0.1809,-0.1814,-0.1722,-0.172,-0.1794,-0.1805,-0.1805,-0.1805,-0.1805,-0.1805,-0.1805,-0.1534,-0.1565,-0.1571,-0.1621,-0.1642,-0.1687,-0.1752,-0.1761,-0.174,-0.1722,-0.172,-0.1799,-0.1798,-0.1794,-0.1805,-0.1805,-0.1805,-0.1805,-0.1805,-0.1462,-0.1486,-0.149,-0.1507,-0.1558,-0.1543,-0.1642,-0.1621,-0.1642,-0.16,-0.166,-0.1663,-0.1643,-0.1647,-0.1638,-0.1608,-0.1608,-0.1608,-0.1608,-0.1399,-0.1417,-0.14,-0.1406,-0.1428,-0.1466,-0.1389,-0.1384,-0.1431,-0.1422,-0.1431,-0.1402,-0.1414,-0.138,-0.1391,-0.1376,-0.1278,-0.1278,-0.1278,-0.1334,-0.1349,-0.1302,-0.133,-0.1351,-0.1344,-0.1208,-0.1106,-0.1135,-0.1267,-0.14,-0.1581,-0.1561,-0.1571,-0.1537,-0.1546,-0.1531,0,0]},{"header":{"parameterUnit":"m.s-1","parameterCategory":2,"la1":30.2992,"la2":30.254,"lo1":-89.0895,"lo2":-89.0443,"dy":0.0025,"dx":0.0025,"nx":19,"ny":19,"refTime":"2026-03-13T03:00:00:Z","depth":"2","parameterNumber":3,"parameterNumberName":"V-component_of_CURRENTS"},"data":[0,0,0,-0.034,-0.0339,-0.0288,-0.0288,-0.0195,-0.0194,0,0,0,0,0,0,0,0,0,0,0,-0.0357,-0.0357,-0.034,-0.0339,-0.0288,-0.0288,-0.0195,-0.0194,0,0,0,0,0,0,0,0,0,0,0,-0.0357,-0.0357,-0.0357,-0.0339,-0.0288,-0.0288,-0.0195,-0.0238,0,0,0,0,0,0,0,0,0,0,-0.0289,-0.0317,-0.0357,-0.0357,-0.0338,-0.0288,-0.0288,-0.024,-0.0235,-0.0213,0,-0.0213,0,-0.0205,-0.0188,-0.0188,0,0,0,-0.0328,-0.0321,-0.0306,-0.0357,-0.0338,-0.0288,-0.0308,-0.0237,-0.0232,-0.0206,-0.0211,-0.0208,-0.0204,-0.0187,-0.0187,-0.0132,-0.0132,0,0,-0.033,-0.0345,-0.031,-0.0303,-0.0334,-0.031,-0.0306,-0.0234,-0.0232,-0.0211,-0.0206,-0.0202,-0.0187,-0.0186,-0.0132,-0.0132,0,0,0,-0.0346,-0.0348,-0.0334,-0.0307,-0.0302,-0.0308,-0.0305,-0.0235,-0.0231,-0.0205,-0.0201,-0.0186,-0.0185,-0.0132,-0.0132,-0.0187,0,0,0,-0.0347,-0.0357,-0.0336,-0.0344,-0.0304,-0.0273,-0.0308,-0.0236,-0.0228,-0.0201,-0.0186,-0.0184,-0.0132,-0.0132,-0.0185,-0.0219,0,0,0,-0.0358,-0.0358,-0.0355,-0.0345,-0.0328,-0.0274,-0.0265,-0.0234,-0.0225,-0.0188,-0.0184,-0.0132,-0.0132,-0.0184,-0.0216,-0.0192,0,0,0,-0.037,-0.0384,-0.0356,-0.0369,-0.0328,-0.0313,-0.0265,-0.0244,-0.0218,-0.0186,-0.0132,-0.0132,-0.0183,-0.0214,-0.0191,-0.0152,-0.0154,0,0,-0.0397,-0.0387,-0.0396,-0.037,-0.0377,-0.0318,-0.0311,-0.0255,-0.0209,-0.0152,-0.015,-0.0186,-0.0216,-0.0192,-0.016,-0.0162,0,0,0,-0.0412,-0.042,-0.0416,-0.0412,-0.0386,-0.0357,-0.03,-0.0266,-0.0214,-0.0195,-0.0173,-0.0191,-0.0173,-0.0147,-0.0148,-0.0133,-0.0133,-0.0133,-0.0133,-0.0466,-0.0454,-0.0471,-0.0452,-0.0437,-0.0379,-0.0347,-0.0286,-0.0242,-0.0226,-0.0225,-0.0234,-0.0207,-0.0208,-0.0208,-0.0208,-0.0208,-0.0208,-0.0209,-0.0522,-0.0536,-0.0515,-0.0528,-0.0487,-0.0469,-0.0387,-0.0345,-0.0283,-0.0258,-0.0238,-0.0195,-0.0212,-0.0213,-0.0212,-0.0211,-0.0211,-0.0211,-0.021,-0.0565,-0.057,-0.0573,-0.0587,-0.0575,-0.0524,-0.0492,-0.0422,-0.0337,-0.0324,-0.0248,-0.0246,-0.026,-0.0299,-0.0299,-0.0299,-0.0299,-0.0299,-0.0299,-0.0609,-0.0611,-0.0643,-0.0648,-0.0656,-0.0637,-0.0552,-0.0494,-0.0376,-0.0305,-0.0303,-0.0264,-0.0261,-0.0263,-0.03,-0.03,-0.03,-0.03,-0.03,-0.0662,-0.0661,-0.0716,-0.0736,-0.0751,-0.0735,-0.0652,-0.0495,-0.0412,-0.0337,-0.0268,-0.0268,-0.0238,-0.0236,-0.0236,-0.0264,-0.0264,-0.0264,-0.0264,-0.0696,-0.0701,-0.0774,-0.0817,-0.0838,-0.0783,-0.0681,-0.0501,-0.033,-0.0244,-0.0245,-0.0229,-0.023,-0.0198,-0.0197,-0.0196,-0.0214,-0.0214,-0.0214,-0.0729,-0.0752,-0.0806,-0.0847,-0.0877,-0.0818,-0.0696,-0.0465,-0.024,-0.0214,-0.0261,-0.0256,-0.0234,-0.0235,-0.0186,-0.0184,-0.0182,0,0]}],[{"header":{"parameterUnit":"m.s-1","parameterCategory":2,"la1":30.2992,"la2":30.254,"lo1":-89.0895,"lo2":-89.0443,"dy":0.0025,"dx":0.0025,"nx":19,"ny":19,"refTime":"2026-03-13T03:00:00:Z","depth":"4","parameterNumber":2,"parameterNumberName":"U-component_of_CURRENTS"},"data":[0,0,0,-0.1228,-0.1231,-0.1326,-0.1327,-0.1386,-0.1387,0,0,0,0,0,0,0,0,0,0,0,-0.1198,-0.1199,-0.1228,-0.1231,-0.1326,-0.1327,-0.1386,-0.1387,0,0,0,0,0,0,0,0,0,0,0,-0.1198,-0.1199,-0.12,-0.1231,-0.1326,-0.1327,-0.1386,-0.133,0,0,0,0,0,0,0,0,0,0,-0.1244,-0.1227,-0.1199,-0.12,-0.1232,-0.1326,-0.1327,-0.1328,-0.1333,-0.1325,0,-0.1347,0,-0.1366,-0.1389,-0.1389,0,0,0,-0.1231,-0.1222,-0.1247,-0.12,-0.1233,-0.1326,-0.1283,-0.1331,-0.1337,-0.1332,-0.1348,-0.1351,-0.1367,-0.1389,-0.139,-0.1439,-0.1439,0,0,-0.1226,-0.1215,-0.1243,-0.1251,-0.1266,-0.128,-0.1286,-0.1336,-0.1344,-0.1348,-0.1352,-0.1368,-0.139,-0.139,-0.1439,-0.1439,0,0,0,-0.121,-0.1211,-0.1236,-0.1248,-0.1269,-0.1283,-0.129,-0.1342,-0.1351,-0.1353,-0.1368,-0.139,-0.139,-0.1438,-0.1439,-0.1458,0,0,0,-0.1207,-0.1202,-0.1234,-0.1228,-0.1269,-0.1316,-0.1296,-0.1348,-0.1354,-0.1368,-0.139,-0.1391,-0.1438,-0.1439,-0.1457,-0.1457,0,0,0,-0.1193,-0.12,-0.1214,-0.1227,-0.1268,-0.1316,-0.1328,-0.135,-0.1363,-0.1389,-0.1391,-0.1438,-0.1438,-0.1456,-0.1456,-0.1448,0,0,0,-0.1174,-0.1193,-0.1214,-0.1244,-0.1267,-0.1323,-0.1328,-0.1375,-0.1401,-0.139,-0.1438,-0.1439,-0.1456,-0.1455,-0.1447,-0.1272,0,0,0,-0.1182,-0.1194,-0.1211,-0.1232,-0.1279,-0.1309,-0.1359,-0.1396,-0.1404,-0.1417,-0.1419,-0.1457,-0.1456,-0.1447,-0.131,0,0,0,0,-0.1203,-0.1216,-0.1235,-0.1272,-0.1314,-0.1357,-0.1398,-0.1412,-0.1446,-0.1423,-0.1464,-0.1463,-0.1457,-0.1353,-0.1442,-0.1442,-0.1442,-0.1441,-0.1441,-0.1186,-0.1217,-0.1249,-0.1293,-0.1333,-0.1394,-0.1426,-0.1452,-0.1461,-0.148,-0.1484,-0.1498,-0.1391,-0.1495,-0.1495,-0.1495,-0.1495,-0.1495,-0.1495,-0.1185,-0.1194,-0.1252,-0.1295,-0.1349,-0.1398,-0.1454,-0.1474,-0.1502,-0.1506,-0.1499,-0.1389,-0.1497,-0.1497,-0.1496,-0.1496,-0.1496,-0.1496,-0.1496,-0.1151,-0.1158,-0.1206,-0.1269,-0.1335,-0.1402,-0.1433,-0.1487,-0.1511,-0.1522,-0.1397,-0.1504,-0.1494,-0.1518,-0.1517,-0.1517,-0.1517,-0.1517,-0.1517,-0.1084,-0.1131,-0.1161,-0.124,-0.128,-0.1341,-0.1425,-0.1432,-0.1475,-0.1393,-0.1523,-0.1505,-0.1504,-0.1495,-0.1517,-0.1517,-0.1517,-0.1517,-0.1517,-0.1013,-0.1052,-0.108,-0.112,-0.1198,-0.1225,-0.1337,-0.1313,-0.1302,-0.1254,-0.1315,-0.1325,-0.1295,-0.13,-0.1282,-0.1242,-0.1239,-0.1237,0,-0.0953,-0.0978,-0.0999,-0.1026,-0.1045,-0.1139,-0.1089,-0.1123,-0.1152,-0.1115,-0.1296,-0.1366,-0.1372,-0.1341,-0.1341,-0.132,0,0,0,-0.0898,-0.0918,-0.09,-0.0947,-0.096,-0.0979,-0.1064,-0.1022,-0.1166,-0.1098,-0.1182,-0.1197,-0.1397,-0.1516,-0.1495,-0.1494,-0.1477,0,0]},{"header":{"parameterUnit":"m.s-1","parameterCategory":2,"la1":30.2992,"la2":30.254,"lo1":-89.0895,"lo2":-89.0443,"dy":0.0025,"dx":0.0025,"nx":19,"ny":19,"refTime":"2026-03-13T03:00:00:Z","depth":"4","parameterNumber":3,"parameterNumberName":"V-component_of_CURRENTS"},"data":[0,0,0,-0.0302,-0.0302,-0.028,-0.028,-0.0214,-0.0214,0,0,0,0,0,0,0,0,0,0,0,-0.031,-0.031,-0.0302,-0.0302,-0.028,-0.028,-0.0214,-0.0214,0,0,0,0,0,0,0,0,0,0,0,-0.031,-0.031,-0.031,-0.0302,-0.028,-0.0279,-0.0214,-0.0238,0,0,0,0,0,0,0,0,0,0,-0.0263,-0.0283,-0.031,-0.031,-0.0302,-0.028,-0.0279,-0.024,-0.0237,-0.0217,0,-0.0221,0,-0.0219,-0.0209,-0.0209,0,0,0,-0.0292,-0.0286,-0.0278,-0.031,-0.0302,-0.028,-0.0287,-0.0238,-0.0235,-0.0213,-0.022,-0.0218,-0.0218,-0.0209,-0.0208,-0.0164,-0.0164,0,0,-0.0294,-0.0304,-0.028,-0.0276,-0.0305,-0.0288,-0.0287,-0.0236,-0.0237,-0.022,-0.0216,-0.0217,-0.0208,-0.0208,-0.0164,-0.0164,0,0,0,-0.0304,-0.0305,-0.0299,-0.0278,-0.0279,-0.0287,-0.0286,-0.0239,-0.0237,-0.0216,-0.0216,-0.0208,-0.0207,-0.0164,-0.0164,-0.021,0,0,0,-0.0304,-0.0312,-0.03,-0.0305,-0.0281,-0.0265,-0.029,-0.024,-0.0235,-0.0216,-0.0208,-0.0207,-0.0164,-0.0164,-0.0209,-0.0239,0,0,0,-0.0309,-0.0312,-0.0312,-0.0306,-0.0301,-0.0266,-0.0261,-0.0239,-0.0235,-0.0209,-0.0206,-0.0164,-0.0164,-0.0208,-0.0236,-0.0224,0,0,0,-0.0317,-0.0329,-0.0313,-0.0327,-0.0301,-0.0295,-0.0261,-0.0251,-0.0233,-0.0208,-0.0164,-0.0164,-0.0207,-0.0235,-0.0223,-0.0222,0,0,0,-0.0337,-0.0332,-0.034,-0.0325,-0.0335,-0.0297,-0.0296,-0.0258,-0.0223,-0.0176,-0.0175,-0.0209,-0.0236,-0.0224,-0.0221,0,0,0,0,-0.0349,-0.0357,-0.0357,-0.036,-0.0345,-0.033,-0.0292,-0.0266,-0.0227,-0.0214,-0.0196,-0.0211,-0.0202,-0.0197,-0.0164,-0.0164,-0.0164,-0.0164,-0.0164,-0.0387,-0.0382,-0.0399,-0.039,-0.0384,-0.0349,-0.0328,-0.0283,-0.0248,-0.0236,-0.0239,-0.025,-0.0247,-0.0221,-0.0221,-0.0222,-0.0222,-0.0222,-0.0222,-0.0427,-0.0438,-0.0433,-0.045,-0.0428,-0.0421,-0.0361,-0.0332,-0.0286,-0.0263,-0.0251,-0.0235,-0.0226,-0.0225,-0.0225,-0.0224,-0.0224,-0.0224,-0.0223,-0.0454,-0.0459,-0.0472,-0.0496,-0.0501,-0.047,-0.0454,-0.0401,-0.0334,-0.0326,-0.029,-0.0271,-0.0277,-0.0311,-0.0311,-0.0311,-0.0311,-0.0311,-0.0311,-0.0476,-0.0487,-0.0525,-0.0544,-0.0564,-0.0562,-0.0509,-0.0467,-0.0395,-0.0344,-0.0336,-0.0279,-0.0276,-0.0281,-0.0312,-0.0312,-0.0312,-0.0312,-0.0312,-0.0504,-0.0515,-0.0571,-0.0602,-0.064,-0.063,-0.0588,-0.0482,-0.0435,-0.0374,-0.0334,-0.0333,-0.031,-0.0307,-0.0311,-0.0353,-0.0353,-0.0354,0,-0.0522,-0.0532,-0.061,-0.0662,-0.0689,-0.0666,-0.06,-0.0534,-0.0432,-0.0429,-0.0439,-0.04,-0.0396,-0.0377,-0.0373,-0.0383,0,0,0,-0.0542,-0.0566,-0.0622,-0.0675,-0.0708,-0.0625,-0.0578,-0.0536,-0.0451,-0.0389,-0.0356,-0.0355,-0.0359,-0.0316,-0.0278,-0.0274,-0.0279,0,0]}]]